Regional Weather Roundup
Issued by NWS Cleveland, OH

Home | Current Version | Previous Version | Text Only | Print | Product List | Glossary Off
Versions: 1 2 3 4 5 6 7 8 9 10 11 12 13 14 15 16 17 18 19 20 21 22 23 24 25 26 27 28 29 30 31 32 33 34 35 36 37 38 39 40 41 42 43 44 45 46 47 48 49 50

000
ASUS41 KCLE 220110
RWRCLE
OHIO REGIONAL WEATHER ROUNDUP
NATIONAL WEATHER SERVICE WILMINGTON, OH
900 PM EDT MON AUG 21 2017

NOTE: "FAIR" INDICATES FEW OR NO CLOUDS BELOW 12,000 FEET WITH NO
SIGNIFICANT WEATHER AND/OR OBSTRUCTIONS TO VISIBILITY.

OHZ001>008-015>018-024>027-034-035-043-044-220200-
   NORTHWEST OHIO

CITY           SKY/WX    TMP DP  RH WIND       PRES   REMARKS
DEFIANCE       FAIR      78  71  79 S6        30.02F
FINDLAY        MOCLDY    77  69  76 S8        30.03S
TOLEDO EXPRESS FAIR      78  73  84 S5        30.01S
TOLEDO EXEC    FAIR      81  75  82 S9        30.02S
LIMA           FAIR      76  71  85 SW9       30.06S
$$

OHZ009>014-019>023-028>033-038-089-220200-
   NORTHEAST OHIO

CITY           SKY/WX    TMP DP  RH WIND       PRES   REMARKS
CLE-HOPKINS    FAIR      84  70  62 SW9       30.06S
CLE-LAKEFRONT  MOCLDY    83  69  62 S7        30.03S
CUY CO. ARPT   MOCLDY    79  68  69 S7        30.06S
LORAIN-ELYRIA  FAIR      78  67  68 S5        30.05S
ASHTABULA      FAIR      75  71  87 S5        30.08S
AKRON-CANTON   MOCLDY    82  68  62 S9        30.09S
WOOSTER        FAIR      75  70  84 S5        30.09S
MANSFIELD      FAIR      78  69  73 S8        30.08F
YOUNGSTOWN     MOCLDY    73  69  87 S5        30.09S
$$

OHZ042-051>053-060>062-070>072-077>081-220200-
  SOUTHWEST OHIO

CITY           SKY/WX    TMP DP  RH WIND       PRES   REMARKS
CINC-COVINGTON CLOUDY    78  73  84 S5        30.09F
CINC-LUNKEN    FAIR      77  72  84 CALM      30.08S
HAMILTON       FAIR      81  70  69 S3        30.08F
DAYTON         MOCLDY    79  68  69 SW7       30.09S
WRIGHT-PAT AFB MOCLDY    79  68  69 SW3       30.08S
DAYTON GENERAL FAIR      79  67  66 S5        30.08F
WILMINGTON     FAIR      76  71  85 S6        30.10S
$$

OHZ036-037-039>041-045>050-054>059-063>069-073>076-082>088-220200-
  CENTRAL AND SOUTHEAST OHIO

CITY           SKY/WX    TMP DP  RH WIND       PRES   REMARKS
COLUMBUS       MOCLDY    83  70  64 S7        30.08S
OSU AIRPORT    FAIR      81  71  71 S7        30.08S
BOLTON FIELD   FAIR      78  71  77 SW6       30.10R
RICKENBACK AFB FAIR      78  71  78 S6        30.08S
NEWARK         FAIR      81  71  71 S5        30.09S
MARION         FAIR      75  69  81 SW6       30.08R
LANCASTER      FAIR      79  71  76 S3        30.11R
ZANESVILLE     FAIR      79  71  76 S6        30.11R
NEW PHILLY     FAIR      78  74  87 S3        30.10R
$$




USA.gov is the U.S. government's official web portal to all federal, state and local government web resources and services.